Weather History for KTMK - May, 2014

Change the Weather History Date:

Sunday, May 11, 2014

  Actual Average (KMMV) Record (KMMV)
Temperature  
Mean Temperature 50 °F 55 °F  
Max Temperature 62 °F 67 °F 90 °F (1931)
Min Temperature 37 °F 43 °F 29 °F (1985)
Degree Days  
Heating Degree Days 16 10  
Month to date heating degree days 125  
Since 1 July heating degree days 4523  
Cooling Degree Days 0 0  
Month to date cooling degree days 0  
Year to date cooling degree days 0  
Moisture  
Dew Point 45 °F    
Average Humidity 81    
Maximum Humidity 100    
Minimum Humidity 52    
Precipitation  
Precipitation 0.00 in 0.07 in 0.41 in (1945)
Month to date precipitation 0.78  
Year to date precipitation 18.26  
Sea Level Pressure  
Sea Level Pressure 30.32 in    
Wind  
Wind Speed 2 mph (NW)    
Max Wind Speed 16 mph    
Max Gust Speed 18 mph    
Visibility 8 miles    
Events Fog    
T = Trace of Precipitation, MM = Missing Value Source: NWS Daily Summary

Daily Weather History Graph

Daily Weather History Graph

Search for Another Location

Airport or City:

Trip Planner

Search our weather history database for the weather conditions in past years. The results will help you decide how hot, cold, wet, or windy it might be!

Date:

Astronomy

May. 11, 2014 Rise Set
Actual Time 6:49 AM MDT 9:34 PM MDT
Civil Twilight 6:15 AM MDT 10:08 PM MDT
Nautical Twilight 5:32 AM MDT 10:51 PM MDT
Astronomical Twilight 4:42 AM MDT 11:42 PM MDT
Moon 6:27 PM MDT (5/11) 5:08 AM MDT (5/11)
Length of Visible Light 15h 52m
Length of Day
14h 44m
Waxing Gibbous, 89% of the Moon is Illuminated
May 11
Waxing Gibbous
May 14
Full
May 21
Last Quarter
May 28
New
Jun 5
First Quarter

Hourly Weather History & Observations

Time (MDT) Temp. Windchill Dew Point Humidity Pressure Visibility Wind Dir Wind Speed Gust Speed Precip Events Conditions
12:15 AM 44.6 °F - 44.6 °F 100% 30.32 in 10.0 mi Calm Calm - N/A   Clear
12:35 AM 44.6 °F 43.1 °F 42.8 °F 93% 30.33 in 10.0 mi ESE 3.5 mph - N/A   Clear
12:55 AM 44.6 °F - 42.8 °F 93% 30.33 in 10.0 mi Calm Calm - N/A   Clear
1:15 AM 42.8 °F - 42.8 °F 100% 30.34 in 10.0 mi Calm Calm - N/A   Clear
1:35 AM 42.8 °F - 42.8 °F 100% 30.34 in 10.0 mi Calm Calm - N/A   Mostly Cloudy
1:55 AM 42.8 °F - 42.8 °F 100% 30.34 in 10.0 mi Calm Calm - N/A   Scattered Clouds
2:15 AM 42.8 °F - 41.0 °F 93% 30.34 in 10.0 mi Calm Calm - N/A   Clear
2:35 AM 41.0 °F - 41.0 °F 100% 30.34 in 10.0 mi Calm Calm - N/A   Mostly Cloudy
2:55 AM 42.8 °F - 41.0 °F 93% 30.35 in 2.5 mi Calm Calm - N/A   Overcast
3:15 AM 42.8 °F - 42.8 °F 100% 30.35 in 2.0 mi Calm Calm - N/A   Overcast
3:35 AM 42.8 °F - 42.8 °F 100% 30.35 in 10.0 mi Calm Calm - N/A   Overcast
3:55 AM 42.8 °F - 42.8 °F 100% 30.35 in 10.0 mi Calm Calm - N/A   Mostly Cloudy
4:15 AM 41.0 °F - 41.0 °F 100% 30.35 in 10.0 mi Calm Calm - N/A   Mostly Cloudy
4:35 AM 41.0 °F - 41.0 °F 100% 30.35 in 3.0 mi Calm Calm - N/A   Scattered Clouds
4:55 AM 41.0 °F - 41.0 °F 100% 30.35 in 0.5 mi Calm Calm - N/A Fog Fog
5:15 AM 41.0 °F - 41.0 °F 100% 30.35 in 1.2 mi Calm Calm - N/A   Overcast
5:35 AM 41.0 °F - 41.0 °F 100% 30.34 in 1.5 mi Calm Calm - N/A   Overcast
5:55 AM 41.0 °F - 39.2 °F 93% 30.33 in 4.0 mi Calm Calm - N/A   Scattered Clouds
6:15 AM 39.2 °F - 39.2 °F 100% 30.33 in 5.0 mi Calm Calm - N/A   Scattered Clouds
6:35 AM 39.2 °F - 39.2 °F 100% 30.33 in 5.0 mi Calm Calm - N/A   Scattered Clouds
6:55 AM 37.4 °F - 37.4 °F 100% 30.33 in 0.5 mi Calm Calm - N/A Fog Fog
7:15 AM 37.4 °F - 37.4 °F 100% 30.34 in 0.5 mi Calm Calm - N/A Fog Fog
7:35 AM 37.4 °F - 37.4 °F 100% 30.34 in 0.5 mi Calm Calm - N/A Fog Fog
7:55 AM 37.4 °F - 37.4 °F 100% 30.35 in 0.2 mi Calm Calm - N/A Fog Fog
8:15 AM 41.0 °F - 41.0 °F 100% 30.35 in 0.2 mi Calm Calm - N/A Fog Fog
8:35 AM 41.0 °F - 41.0 °F 100% 30.35 in 10.0 mi Calm Calm - N/A   Mostly Cloudy
8:55 AM 42.8 °F - 42.8 °F 100% 30.36 in 10.0 mi Calm Calm - N/A   Clear
9:15 AM 44.6 °F - 44.6 °F 100% 30.36 in 10.0 mi Calm Calm - N/A   Clear
9:35 AM 46.4 °F - 46.4 °F 100% 30.35 in 10.0 mi Calm Calm - N/A   Clear
9:55 AM 48.2 °F - 46.4 °F 93% 30.35 in 10.0 mi Calm Calm - N/A   Clear
10:15 AM 50.0 °F - 46.4 °F 87% 30.35 in 10.0 mi Calm Calm - N/A   Clear
10:35 AM 51.8 °F - 44.6 °F 76% 30.35 in 10.0 mi Calm Calm - N/A   Clear
10:55 AM 53.6 °F - 44.6 °F 72% 30.35 in 10.0 mi Calm Calm - N/A   Clear
11:15 AM 53.6 °F - 44.6 °F 72% 30.35 in 10.0 mi Calm Calm - N/A   Clear
11:35 AM 55.4 °F - 44.6 °F 67% 30.35 in 10.0 mi Calm Calm - N/A   Clear
11:55 AM 55.4 °F - 44.6 °F 67% 30.35 in 10.0 mi Calm Calm - N/A   Clear
12:15 PM 59.0 °F - 44.6 °F 59% 30.35 in 10.0 mi Calm Calm - N/A   Clear
12:35 PM 59.0 °F - 44.6 °F 59% 30.34 in 10.0 mi Calm Calm - N/A   Clear
12:55 PM 59.0 °F - 42.8 °F 55% 30.33 in 10.0 mi Calm Calm - N/A   Clear
1:15 PM 59.0 °F - 42.8 °F 55% 30.33 in 10.0 mi Calm Calm - N/A   Clear
1:35 PM 60.8 °F - 44.6 °F 55% 30.32 in 10.0 mi South 4.6 mph - N/A   Clear
1:55 PM 62.6 °F - 44.6 °F 52% 30.32 in 10.0 mi WNW 6.9 mph - N/A   Clear
2:15 PM 60.8 °F - 46.4 °F 59% 30.32 in 10.0 mi WNW 10.4 mph - N/A   Clear
2:35 PM 60.8 °F - 46.4 °F 59% 30.31 in 10.0 mi WNW 10.4 mph - N/A   Clear
2:55 PM 60.8 °F - 48.2 °F 63% 30.31 in 10.0 mi NW 10.4 mph - N/A   Clear
3:15 PM 60.8 °F - 48.2 °F 63% 30.31 in 10.0 mi NW 10.4 mph - N/A   Clear
3:35 PM 60.8 °F - 46.4 °F 59% 30.31 in 10.0 mi NW 10.4 mph - N/A   Clear
3:55 PM 60.8 °F - 48.2 °F 63% 30.31 in 10.0 mi NW 12.7 mph - N/A   Clear
4:15 PM 60.8 °F - 48.2 °F 63% 30.31 in 10.0 mi NW 13.8 mph - N/A   Clear
4:35 PM 60.8 °F - 50.0 °F 68% 30.31 in 10.0 mi NW 10.4 mph 16.1 mph N/A   Clear
4:55 PM 60.8 °F - 48.2 °F 63% 30.30 in 10.0 mi NW 12.7 mph 17.3 mph N/A   Clear
5:15 PM 60.8 °F - 48.2 °F 63% 30.30 in 10.0 mi WNW 16.1 mph - N/A   Clear
5:35 PM 60.8 °F - 48.2 °F 63% 30.30 in 10.0 mi WNW 12.7 mph 18.4 mph N/A   Clear
5:55 PM 60.8 °F - 50.0 °F 68% 30.29 in 10.0 mi NW 10.4 mph 17.3 mph N/A   Clear
6:15 PM 60.8 °F - 48.2 °F 63% 30.29 in 10.0 mi WNW 11.5 mph - N/A   Clear
6:35 PM 60.8 °F - 48.2 °F 63% 30.28 in 10.0 mi WNW 12.7 mph - N/A   Clear
6:55 PM 60.8 °F - 50.0 °F 68% 30.28 in 10.0 mi NW 12.7 mph - N/A   Clear
7:15 PM 59.0 °F - 46.4 °F 63% 30.28 in 10.0 mi NW 9.2 mph - N/A   Clear
7:35 PM 59.0 °F - 46.4 °F 63% 30.28 in 10.0 mi NW 10.4 mph - N/A   Clear
7:55 PM 59.0 °F - 50.0 °F 72% 30.27 in 10.0 mi NW 6.9 mph - N/A   Clear
8:15 PM 59.0 °F - 48.2 °F 67% 30.27 in 10.0 mi NW 9.2 mph - N/A   Clear
8:35 PM 59.0 °F - 48.2 °F 67% 30.27 in 10.0 mi WNW 6.9 mph - N/A   Clear
8:55 PM 57.2 °F - 48.2 °F 72% 30.27 in 10.0 mi NW 3.5 mph - N/A   Clear
9:15 PM 55.4 °F - 48.2 °F 77% 30.27 in 10.0 mi Calm Calm - N/A   Clear
9:35 PM 55.4 °F - 48.2 °F 77% 30.27 in 10.0 mi Calm Calm - N/A   Clear
9:55 PM 53.6 °F - 48.2 °F 82% 30.27 in 10.0 mi Calm Calm - N/A   Clear
10:15 PM 55.4 °F - 48.2 °F 77% 30.28 in 10.0 mi Calm Calm - N/A   Clear
10:35 PM 53.6 °F - 48.2 °F 82% 30.29 in 10.0 mi Calm Calm - N/A   Clear
10:55 PM 51.8 °F - 48.2 °F 88% 30.29 in 10.0 mi Calm Calm - N/A   Clear
11:15 PM 50.0 °F - 48.2 °F 94% 30.30 in 10.0 mi SSE 3.5 mph - N/A   Clear
11:35 PM 50.0 °F - 48.2 °F 94% 30.30 in 10.0 mi ESE 3.5 mph - N/A   Clear
11:55 PM 50.0 °F - 46.4 °F 87% 30.30 in 10.0 mi Calm Calm - N/A   Clear